Weather History for KEVM - March, 2014

Change the Weather History Date:

Sunday, March 2, 2014

  Actual Average Record
Temperature  
Mean Temperature -12 °F -  
Max Temperature 3 °F 25 °F 54 °F (1993)
Min Temperature -27 °F 6 °F -27 °F (2014)
Degree Days  
Heating Degree Days 77    
Moisture  
Dew Point -24 °F    
Average Humidity 56    
Maximum Humidity 69    
Minimum Humidity 39    
Precipitation  
Precipitation 0.00 in - - ()
Sea Level Pressure  
Sea Level Pressure 30.37 in    
Wind  
Wind Speed 6 mph (West)    
Max Wind Speed 14 mph    
Max Gust Speed 20 mph    
Visibility 9 miles    
Events      
Averages and records for this station are not official NWS values.
T = Trace of Precipitation, MM = Missing Value Source: NWS Daily Summary

Daily Weather History Graph

Daily Weather History Graph

Search for Another Location

Airport or City:

Trip Planner

Search our weather history database for the weather conditions in past years. The results will help you decide how hot, cold, wet, or windy it might be!

Date:

Astronomy

Mar. 02, 2014 Rise Set
Actual Time 6:48 AM CST 5:56 PM CST
Civil Twilight 6:17 AM CST 6:27 PM CST
Nautical Twilight 5:42 AM CST 7:02 PM CST
Astronomical Twilight 5:06 AM CST 7:38 PM CST
Moon 7:11 AM CST (3/2) 8:04 PM CST (3/2)
Length of Visible Light 12h 09m
Length of Day
11h 08m
Waxing Crescent, 3% of the Moon is Illuminated
Mar 2
Waxing Crescent
Mar 8
First Quarter
Mar 16
Full
Mar 23
Last Quarter
Mar 30
New

Hourly Weather History & Observations

Time (CST) Temp. Windchill Dew Point Humidity Pressure Visibility Wind Dir Wind Speed Gust Speed Precip Events Conditions
12:07 AM -20.2 °F -37.3 °F -31.0 °F 58% 30.39 in 10.0 mi West 6.9 mph - N/A   Clear
12:26 AM -20.2 °F -35.5 °F -31.0 °F 58% 30.39 in 10.0 mi West 5.8 mph - N/A   Clear
12:47 AM -22.0 °F -35.6 °F -31.0 °F 63% 30.40 in 10.0 mi WSW 4.6 mph - N/A   Clear
1:06 AM -22.0 °F -35.6 °F -31.0 °F 63% 30.40 in 10.0 mi WSW 4.6 mph - N/A   Clear
1:27 AM -22.0 °F -37.7 °F -31.0 °F 63% 30.40 in 10.0 mi WSW 5.8 mph - N/A   Clear
1:47 AM -22.0 °F -33.0 °F -31.0 °F 63% 30.40 in 10.0 mi WSW 3.5 mph - N/A   Clear
2:06 AM -22.0 °F -33.0 °F -31.0 °F 63% 30.39 in 10.0 mi WSW 3.5 mph - N/A   Clear
2:27 AM -27.4 °F -39.2 °F -34.6 °F 69% 30.39 in 10.0 mi West 3.5 mph - N/A   Clear
2:46 AM -22.0 °F -33.0 °F -31.0 °F 63% 30.39 in 10.0 mi West 3.5 mph - N/A   Clear
3:06 AM -25.6 °F -37.1 °F -32.8 °F 69% 30.38 in 10.0 mi WSW 3.5 mph - N/A   Clear
3:26 AM -27.4 °F -39.2 °F -34.6 °F 69% 30.38 in 10.0 mi SW 3.5 mph - N/A   Clear
3:46 AM -27.4 °F -39.2 °F -36.4 °F 62% 30.38 in 10.0 mi SW 3.5 mph - N/A   Clear
4:07 AM -27.4 °F - -34.6 °F 69% 30.38 in 10.0 mi Calm Calm - N/A   Clear
4:26 AM -27.4 °F - -34.6 °F 69% 30.38 in 10.0 mi Calm Calm - N/A   Clear
4:46 AM -27.4 °F - -34.6 °F 69% 30.38 in 10.0 mi Calm Calm - N/A   Scattered Clouds
5:07 AM -27.4 °F - -34.6 °F 69% 30.38 in 3.0 mi Calm Calm - N/A   Haze
5:26 AM -27.4 °F - -36.4 °F 62% 30.37 in 4.0 mi Calm Calm - N/A   Haze
5:46 AM -27.4 °F - -34.6 °F 69% 30.38 in 4.0 mi Calm Calm - N/A   Haze
6:07 AM -25.6 °F - -34.6 °F 63% 30.38 in 5.0 mi Calm Calm - N/A   Haze
6:26 AM -25.6 °F - -32.8 °F 69% 30.37 in 5.0 mi Calm Calm - N/A   Haze
6:46 AM -25.6 °F - -32.8 °F 69% 30.37 in 4.0 mi Calm Calm - N/A   Haze
7:07 AM -25.6 °F -39.8 °F -32.8 °F 69% 30.37 in 7.0 mi WSW 4.6 mph - N/A   Clear
7:26 AM -25.6 °F -39.8 °F -32.8 °F 69% 30.37 in 10.0 mi WSW 4.6 mph - N/A   Clear
7:46 AM -25.6 °F -39.8 °F -32.8 °F 69% 30.37 in 5.0 mi WSW 4.6 mph - N/A   Haze
8:07 AM -22.0 °F -33.0 °F -31.0 °F 63% 30.37 in 3.0 mi WSW 3.5 mph - N/A   Haze
8:26 AM -22.0 °F -37.7 °F -29.2 °F 69% 30.37 in 5.0 mi WSW 5.8 mph - N/A   Haze
8:46 AM -18.4 °F -35.1 °F -27.4 °F 63% 30.37 in 10.0 mi West 6.9 mph - N/A   Clear
9:07 AM -16.6 °F -31.3 °F -27.4 °F 58% 30.37 in 10.0 mi WSW 5.8 mph - N/A   Clear
9:26 AM -14.8 °F -32.2 °F -25.6 °F 58% 30.37 in 10.0 mi West 8.1 mph - N/A   Clear
9:47 AM -13.0 °F -30.0 °F -25.6 °F 53% 30.37 in 10.0 mi West 8.1 mph - N/A   Clear
10:06 AM -13.0 °F -30.0 °F -25.6 °F 53% 30.37 in 10.0 mi WSW 8.1 mph - N/A   Clear
10:27 AM -9.4 °F -24.3 °F -23.8 °F 49% 30.37 in 10.0 mi West 6.9 mph - N/A   Clear
10:33 AM -9.4 °F -25.6 °F -23.8 °F 49% 30.37 in 10.0 mi West 8.1 mph - N/A   Clear
11:05 AM -7.6 °F -24.6 °F -22.0 °F 50% 30.37 in 10.0 mi West 9.2 mph - N/A   Clear
11:25 AM -7.6 °F -26.6 °F -23.8 °F 45% 30.37 in 10.0 mi West 11.5 mph - N/A   Clear
11:45 AM -7.6 °F -23.4 °F -22.0 °F 50% 30.37 in 10.0 mi West 8.1 mph - N/A   Clear
12:05 PM -5.8 °F -19.9 °F -22.0 °F 46% 30.37 in 10.0 mi West 6.9 mph - N/A   Clear
12:25 PM -4.0 °F -22.1 °F -18.4 °F 50% 30.36 in 10.0 mi WNW 11.5 mph - N/A   Clear
12:45 PM -4.0 °F -19.0 °F -20.2 °F 46% 30.35 in 10.0 mi West 8.1 mph - N/A   Clear
1:05 PM -2.2 °F -16.8 °F -18.4 °F 46% 30.35 in 10.0 mi NW 8.1 mph - N/A   Clear
1:25 PM -0.4 °F -17.6 °F -18.4 °F 43% 30.35 in 10.0 mi WNW 11.5 mph - N/A   Clear
1:45 PM -0.4 °F -19.2 °F -16.6 °F 46% 30.34 in 10.0 mi WNW 13.8 mph 17.3 mph N/A   Clear
2:05 PM 1.4 °F -15.3 °F -16.6 °F 43% 30.34 in 10.0 mi NNW 11.5 mph 19.6 mph N/A   Clear
2:25 PM 1.4 °F -15.3 °F -16.6 °F 43% 30.34 in 10.0 mi NW 11.5 mph - N/A   Clear
2:45 PM 1.4 °F -14.5 °F -16.6 °F 43% 30.34 in 10.0 mi WNW 10.4 mph 16.1 mph N/A   Clear
3:05 PM 3.2 °F -11.3 °F -16.6 °F 39% 30.34 in 10.0 mi NW 9.2 mph 19.6 mph N/A   Clear
3:25 PM 3.2 °F -10.3 °F -14.8 °F 43% 30.34 in 10.0 mi NW 8.1 mph - N/A   Clear
3:45 PM 3.2 °F -12.2 °F -14.8 °F 43% 30.34 in 10.0 mi WNW 10.4 mph - N/A   Clear
4:05 PM 3.2 °F -13.9 °F -14.8 °F 43% 30.34 in 10.0 mi WNW 12.7 mph 19.6 mph N/A   Clear
4:25 PM 3.2 °F -13.9 °F -14.8 °F 43% 30.34 in 10.0 mi NW 12.7 mph - N/A   Clear
4:45 PM 3.2 °F -12.2 °F -14.8 °F 43% 30.34 in 10.0 mi WNW 10.4 mph - N/A   Clear
5:05 PM 3.2 °F -11.3 °F -14.8 °F 43% 30.35 in 10.0 mi NW 9.2 mph - N/A   Clear
5:25 PM 1.4 °F -15.3 °F -16.6 °F 43% 30.35 in 10.0 mi WNW 11.5 mph - N/A   Clear
5:45 PM 1.4 °F -12.5 °F -14.8 °F 47% 30.35 in 10.0 mi WNW 8.1 mph - N/A   Clear
6:05 PM -0.4 °F -13.4 °F -16.6 °F 46% 30.35 in 10.0 mi WNW 6.9 mph - N/A   Clear
6:25 PM -0.4 °F -13.4 °F -16.6 °F 46% 30.36 in 10.0 mi WNW 6.9 mph - N/A   Clear
6:45 PM -0.4 °F -10.4 °F -16.6 °F 46% 30.36 in 10.0 mi WNW 4.6 mph - N/A   Clear
7:05 PM -2.2 °F -12.5 °F -16.6 °F 50% 30.37 in 10.0 mi WNW 4.6 mph - N/A   Clear
7:25 PM -2.2 °F -15.6 °F -18.4 °F 46% 30.37 in 10.0 mi NW 6.9 mph - N/A   Clear
7:45 PM -4.0 °F -16.3 °F -18.4 °F 50% 30.37 in 10.0 mi WNW 5.8 mph - N/A   Clear
8:05 PM -4.0 °F -12.4 °F -16.6 °F 55% 30.37 in 10.0 mi West 3.5 mph - N/A   Clear
8:25 PM -4.0 °F -14.6 °F -18.4 °F 50% 30.38 in 10.0 mi NW 4.6 mph - N/A   Clear
8:45 PM -5.8 °F -18.4 °F -18.4 °F 55% 30.38 in 10.0 mi WNW 5.8 mph - N/A   Clear
9:05 PM -5.8 °F -14.5 °F -18.4 °F 55% 30.39 in 10.0 mi West 3.5 mph - N/A   Clear
9:25 PM -7.6 °F -18.8 °F -20.2 °F 54% 30.40 in 10.0 mi West 4.6 mph - N/A   Clear
9:45 PM -7.6 °F -16.5 °F -18.4 °F 59% 30.40 in 10.0 mi WNW 3.5 mph - N/A   Clear
10:05 PM -7.6 °F -18.8 °F -18.4 °F 59% 30.41 in 10.0 mi West 4.6 mph - N/A   Clear
10:25 PM -7.6 °F -22.1 °F -18.4 °F 59% 30.41 in 10.0 mi NW 6.9 mph - N/A   Clear
10:45 PM -7.6 °F -24.6 °F -18.4 °F 59% 30.41 in 10.0 mi NW 9.2 mph - N/A   Clear
11:05 PM -7.6 °F -20.6 °F -18.4 °F 59% 30.41 in 10.0 mi West 5.8 mph - N/A   Clear
11:25 PM -11.2 °F -20.6 °F -20.2 °F 64% 30.41 in 10.0 mi West 3.5 mph - N/A   Clear
11:45 PM -11.2 °F -23.0 °F -20.2 °F 64% 30.40 in 10.0 mi NW 4.6 mph - N/A   Clear